| time (UTC) | temp F | wind direction | speed MPH | gust MPH | rain 1hr in | rain 24hr in | rain mn in | humidity % | barometer mb |
| 20260906213327 | 91 | 143 | 3.0 | 9.0 | 0.00 | 0.00 | 0.00 | 31 | 1017.3 |
| 20260906212849 | 90 | 174 | 2.0 | 10.0 | 0.00 | 0.00 | 0.00 | 31 | 1017.3 |
| 20260906212350 | 90 | 103 | 5.0 | 10.0 | 0.00 | 0.00 | 0.00 | 31 | 1017.5 |
| 20260906211828 | 90 | 131 | 5.0 | 15.0 | 0.00 | 0.00 | 0.00 | 32 | 1017.5 |
| 20260906211330 | 90 | 145 | 9.0 | 15.0 | 0.00 | 0.00 | 0.00 | 32 | 1017.5 |
| 20260906210849 | 91 | 126 | 5.0 | 14.0 | 0.00 | 0.00 | 0.00 | 31 | 1017.6 |
| 20260906210328 | 91 | 200 | 7.0 | 14.0 | 0.00 | 0.00 | 0.00 | 30 | 1017.7 |
| 20260906205828 | 91 | 163 | 4.0 | 13.0 | 0.00 | 0.00 | 0.00 | 30 | 1017.8 |
| 20260906205329 | 90 | 150 | 6.0 | 16.0 | 0.00 | 0.00 | 0.00 | 31 | 1017.8 |
| 20260906204831 | 90 | 178 | 3.0 | 16.0 | 0.00 | 0.00 | 0.00 | 32 | 1017.8 |
| 20260906204332 | 90 | 78 | 4.0 | 10.0 | 0.00 | 0.00 | 0.00 | 32 | 1017.8 |
| 20260906203835 | 90 | 163 | 4.0 | 11.0 | 0.00 | 0.00 | 0.00 | 30 | 1018.0 |
| 20260906203314 | 90 | 161 | 4.0 | 11.0 | 0.00 | 0.00 | 0.00 | 32 | 1018.0 |
| 20260906202816 | 89 | 96 | 3.0 | 8.0 | 0.00 | 0.00 | 0.00 | 32 | 1018.0 |
| 20260906202316 | 90 | 109 | 3.0 | 8.0 | 0.00 | 0.00 | 0.00 | 32 | 1018.2 |
| 20260906201839 | 89 | 124 | 4.0 | 8.0 | 0.00 | 0.00 | 0.00 | 32 | 1018.2 |
| 20260906201317 | 89 | 149 | 3.0 | 7.0 | 0.00 | 0.00 | 0.00 | 32 | 1018.3 |
| 20260906200819 | 89 | 151 | 4.0 | 8.0 | 0.00 | 0.00 | 0.00 | 31 | 1018.4 |
| 20260906200320 | 89 | 150 | 3.0 | 8.0 | 0.00 | 0.00 | 0.00 | 32 | 1018.5 |
| 20260906195819 | 88 | 148 | 3.0 | 10.0 | 0.00 | 0.00 | 0.00 | 33 | 1018.6 |
| 20260906195321 | 88 | 154 | 4.0 | 10.0 | 0.00 | 0.00 | 0.00 | 33 | 1018.6 |
| 20260906194821 | 88 | 171 | 3.0 | 7.0 | 0.00 | 0.00 | 0.00 | 32 | 1018.6 |
| 20260906194323 | 88 | 167 | 4.0 | 12.0 | 0.00 | 0.00 | 0.00 | 33 | 1018.6 |
| 20260906193824 | 87 | 165 | 5.0 | 12.0 | 0.00 | 0.00 | 0.00 | 33 | 1018.8 |
| 20260906193325 | 86 | 97 | 0.0 | 9.0 | 0.00 | 0.00 | 0.00 | 35 | 1018.9 |
| 20260906192826 | 86 | 102 | 3.0 | 10.0 | 0.00 | 0.00 | 0.00 | 35 | 1018.9 |
| 20260906192346 | 86 | 99 | 3.0 | 12.0 | 0.00 | 0.00 | 0.00 | 35 | 1019.0 |
| 20260906191845 | 86 | 100 | 6.0 | 11.0 | 0.00 | 0.00 | 0.00 | 35 | 1019.1 |
| 20260906191325 | 86 | 111 | 4.0 | 10.0 | 0.00 | 0.00 | 0.00 | 35 | 1019.2 |
| 20260906190826 | 86 | 155 | 4.0 | 8.0 | 0.00 | 0.00 | 0.00 | 36 | 1019.3 |
| 20260906190326 | 85 | 163 | 3.0 | 8.0 | 0.00 | 0.00 | 0.00 | 36 | 1019.4 |
| 20260906185828 | 85 | 283 | 3.0 | 8.0 | 0.00 | 0.00 | 0.00 | 37 | 1019.5 |
| 20260906185327 | 84 | 296 | 3.0 | 8.0 | 0.00 | 0.00 | 0.00 | 38 | 1019.6 |
| 20260906184830 | 84 | 291 | 3.0 | 7.0 | 0.00 | 0.00 | 0.00 | 39 | 1019.7 |
| 20260906184351 | 83 | 285 | 2.0 | 5.0 | 0.00 | 0.00 | 0.00 | 40 | 1019.8 |
| 20260906183831 | 83 | 284 | 2.0 | 5.0 | 0.00 | 0.00 | 0.00 | 39 | 1020.0 |
| 20260906183330 | 84 | 284 | 3.0 | 5.0 | 0.00 | 0.00 | 0.00 | 37 | 1020.0 |
| 20260906182829 | 84 | 279 | 1.0 | 4.0 | 0.00 | 0.00 | 0.00 | 38 | 1020.2 |
| 20260906182348 | 83 | 279 | 2.0 | 5.0 | 0.00 | 0.00 | 0.00 | 40 | 1020.3 |
| 20260906181825 | 83 | 279 | 1.0 | 5.0 | 0.00 | 0.00 | 0.00 | 39 | 1020.4 |
| 20260906181327 | 82 | 279 | 2.0 | 4.0 | 0.00 | 0.00 | 0.00 | 40 | 1020.5 |
| 20260906180828 | 82 | 279 | 3.0 | 4.0 | 0.00 | 0.00 | 0.00 | 42 | 1020.7 |
| 20260906180328 | 81 | 278 | 1.0 | 5.0 | 0.00 | 0.00 | 0.00 | 43 | 1020.7 |
| 20260906175828 | 81 | 279 | 3.0 | 5.0 | 0.00 | 0.00 | 0.00 | 44 | 1020.8 |
| 20260906175330 | 81 | 277 | 3.0 | 5.0 | 0.00 | 0.00 | 0.00 | 45 | 1020.9 |
| 20260906174830 | 80 | 277 | 2.0 | 5.0 | 0.00 | 0.00 | 0.00 | 45 | 1021.0 |
| 20260906174332 | 80 | 277 | 2.0 | 5.0 | 0.00 | 0.00 | 0.00 | 46 | 1021.1 |
| 20260906173815 | 80 | 279 | 0.0 | 5.0 | 0.00 | 0.00 | 0.00 | 47 | 1021.2 |
| 20260906173318 | 80 | 279 | 3.0 | 5.0 | 0.00 | 0.00 | 0.00 | 47 | 1021.3 |
| 20260906172838 | 79 | 276 | 1.0 | 4.0 | 0.00 | 0.00 | 0.00 | 47 | 1021.3 |
| 20260906172316 | 79 | 275 | 2.0 | 5.0 | 0.00 | 0.00 | 0.00 | 48 | 1021.4 |
| 20260906171817 | 78 | 275 | 3.0 | 5.0 | 0.00 | 0.00 | 0.00 | 48 | 1021.5 |
| 20260906171317 | 78 | 276 | 1.0 | 7.0 | 0.00 | 0.00 | 0.00 | 49 | 1021.6 |
| 20260906170818 | 78 | 276 | 3.0 | 7.0 | 0.00 | 0.00 | 0.00 | 50 | 1021.7 |
| 20260906170319 | 77 | 273 | 0.0 | 6.0 | 0.00 | 0.00 | 0.00 | 49 | 1021.9 |
| 20260906165821 | 77 | 273 | 1.0 | 8.0 | 0.00 | 0.00 | 0.00 | 54 | 1021.8 |
| 20260906165320 | 77 | 273 | 3.0 | 8.0 | 0.00 | 0.00 | 0.00 | 52 | 1021.9 |
| 20260906164822 | 76 | 272 | 4.0 | 7.0 | 0.00 | 0.00 | 0.00 | 56 | 1021.9 |
| 20260906164325 | 76 | 265 | 2.0 | 7.0 | 0.00 | 0.00 | 0.00 | 58 | 1021.9 |
| 20260906163845 | 76 | 259 | 2.0 | 4.0 | 0.00 | 0.00 | 0.00 | 57 | 1021.9 |
| 20260906163326 | 76 | 258 | 2.0 | 3.0 | 0.00 | 0.00 | 0.00 | 59 | 1021.9 |
| 20260906162847 | 75 | 257 | 1.0 | 6.0 | 0.00 | 0.00 | 0.00 | 60 | 1021.8 |
| 20260906162326 | 74 | 258 | 2.0 | 6.0 | 0.00 | 0.00 | 0.00 | 59 | 1021.9 |
| 20260906161827 | 74 | 258 | 1.0 | 4.0 | 0.00 | 0.00 | 0.00 | 63 | 1021.9 |
| 20260906161330 | 73 | 258 | 2.0 | 4.0 | 0.00 | 0.00 | 0.00 | 64 | 1021.9 |
| 20260906160848 | 73 | 258 | 1.0 | 4.0 | 0.00 | 0.00 | 0.00 | 66 | 1021.8 |
| 20260906160313 | 72 | 257 | 2.0 | 6.0 | 0.00 | 0.00 | 0.00 | 66 | 1021.9 |
| 20260906155813 | 72 | 258 | 2.0 | 7.0 | 0.00 | 0.00 | 0.00 | 67 | 1021.9 |
| 20260906155331 | 72 | 258 | 3.0 | 7.0 | 0.00 | 0.00 | 0.00 | 68 | 1021.9 |
| 20260906154853 | 72 | 259 | 3.0 | 8.0 | 0.00 | 0.00 | 0.00 | 68 | 1021.9 |
| 20260906154354 | 72 | 259 | 3.0 | 8.0 | 0.00 | 0.00 | 0.00 | 69 | 1021.9 |
| 20260906153832 | 71 | 261 | 3.0 | 7.0 | 0.00 | 0.00 | 0.00 | 70 | 1021.9 |
| 20260906153313 | 71 | 257 | 2.0 | 7.0 | 0.00 | 0.00 | 0.00 | 70 | 1022.0 |
| 20260906152815 | 70 | 254 | 2.0 | 5.0 | 0.00 | 0.00 | 0.00 | 72 | 1022.0 |
| 20260906152317 | 70 | 254 | 2.0 | 6.0 | 0.00 | 0.00 | 0.00 | 72 | 1022.1 |
| 20260906151838 | 69 | 255 | 2.0 | 6.0 | 0.00 | 0.00 | 0.00 | 73 | 1022.1 |
| 20260906151320 | 69 | 255 | 1.0 | 4.0 | 0.00 | 0.00 | 0.00 | 74 | 1022.1 |
| 20260906150821 | 69 | 255 | 1.0 | 4.0 | 0.00 | 0.00 | 0.00 | 74 | 1022.1 |
| 20260906150321 | 69 | 255 | 2.0 | 6.0 | 0.00 | 0.00 | 0.00 | 74 | 1022.1 |
| 20260906145822 | 69 | 255 | 2.0 | 7.0 | 0.00 | 0.00 | 0.00 | 74 | 1022.1 |
| 20260906145324 | 69 | 253 | 3.0 | 7.0 | 0.00 | 0.00 | 0.00 | 74 | 1022.0 |
| 20260906144827 | 68 | 254 | 3.0 | 6.0 | 0.00 | 0.00 | 0.00 | 75 | 1021.9 |
| 20260906144328 | 68 | 254 | 1.0 | 6.0 | 0.00 | 0.00 | 0.00 | 76 | 1021.9 |
| 20260906143830 | 68 | 254 | 2.0 | 6.0 | 0.00 | 0.00 | 0.00 | 76 | 1021.9 |
| 20260906143353 | 67 | 255 | 1.0 | 6.0 | 0.00 | 0.00 | 0.00 | 78 | 1021.9 |
| 20260906142814 | 67 | 254 | 3.0 | 7.0 | 0.00 | 0.00 | 0.00 | 79 | 1021.9 |
| 20260906142314 | 66 | 253 | 2.0 | 7.0 | 0.00 | 0.00 | 0.00 | 79 | 1021.9 |
| 20260906141814 | 66 | 254 | 2.0 | 5.0 | 0.00 | 0.00 | 0.00 | 79 | 1022.1 |
| 20260906141316 | 66 | 254 | 2.0 | 7.0 | 0.00 | 0.00 | 0.00 | 79 | 1022.1 |
| 20260906140817 | 66 | 254 | 2.0 | 7.0 | 0.00 | 0.00 | 0.00 | 80 | 1022.0 |
| 20260906140337 | 65 | 253 | 1.0 | 5.0 | 0.00 | 0.00 | 0.00 | 81 | 1021.9 |
| 20260906135818 | 65 | 253 | 3.0 | 7.0 | 0.00 | 0.00 | 0.00 | 81 | 1022.0 |
| 20260906135318 | 65 | 253 | 2.0 | 7.0 | 0.00 | 0.00 | 0.00 | 82 | 1021.9 |
| 20260906134819 | 64 | 252 | 1.0 | 5.0 | 0.00 | 0.00 | 0.00 | 81 | 1021.9 |
| 20260906134340 | 64 | 252 | 2.0 | 5.0 | 0.00 | 0.00 | 0.00 | 81 | 1021.9 |
| 20260906133818 | 64 | 252 | 1.0 | 5.0 | 0.00 | 0.00 | 0.00 | 81 | 1021.7 |
| 20260906133320 | 63 | 252 | 1.0 | 3.0 | 0.00 | 0.00 | 0.00 | 81 | 1021.8 |
| 20260906132821 | 63 | 252 | 0.0 | 2.0 | 0.00 | 0.00 | 0.00 | 81 | 1021.7 |
| 20260906132322 | 63 | 251 | 0.0 | 4.0 | 0.00 | 0.00 | 0.00 | 82 | 1021.7 |
| 20260906131826 | 62 | 358 | 1.0 | 4.0 | 0.00 | 0.00 | 0.00 | 82 | 1021.7 |
| 20260906131327 | 62 | 252 | 1.0 | 3.0 | 0.00 | 0.00 | 0.00 | 83 | 1021.7 |
| 20260906130829 | 62 | 252 | 0.0 | 3.0 | 0.00 | 0.00 | 0.00 | 83 | 1021.6 |
| 20260906130330 | 62 | 358 | 1.0 | 2.0 | 0.00 | 0.00 | 0.00 | 83 | 1021.5 |
| 20260906125813 | 62 | 358 | 0.0 | 2.0 | 0.00 | 0.00 | 0.00 | 83 | 1021.5 |
| 20260906125314 | 62 | 358 | 0.0 | 1.0 | 0.00 | 0.00 | 0.00 | 82 | 1021.6 |
| 20260906124814 | 62 | 358 | 0.0 | 1.0 | 0.00 | 0.00 | 0.00 | 82 | 1021.6 |
| 20260906124317 | 62 | 358 | 0.0 | 2.0 | 0.00 | 0.00 | 0.00 | 82 | 1021.5 |
| 20260906123820 | 62 | 358 | 0.0 | 3.0 | 0.00 | 0.00 | 0.00 | 82 | 1021.3 |
| 20260906123322 | 62 | 358 | 0.0 | 2.0 | 0.00 | 0.00 | 0.00 | 81 | 1021.3 |
| 20260906122825 | 62 | 358 | 0.0 | 2.0 | 0.00 | 0.00 | 0.00 | 80 | 1021.2 |
| 20260906122328 | 62 | 358 | 0.0 | 4.0 | 0.00 | 0.00 | 0.00 | 80 | 1021.3 |
| 20260906121829 | 62 | 358 | 1.0 | 4.0 | 0.00 | 0.00 | 0.00 | 80 | 1021.3 |
| 20260906121330 | 61 | 358 | 0.0 | 2.0 | 0.00 | 0.00 | 0.00 | 79 | 1021.3 |
| 20260906120812 | 61 | 358 | 0.0 | 1.0 | 0.00 | 0.00 | 0.00 | 78 | 1021.3 |
| 20260906120314 | 61 | 358 | 0.0 | 0.0 | 0.00 | 0.00 | 0.00 | 77 | 1021.3 |
| 20260906115816 | 62 | 358 | 0.0 | 1.0 | 0.00 | 0.00 | 0.00 | 76 | 1021.3 |
| 20260906115339 | 62 | 358 | 0.0 | 1.0 | 0.00 | 0.00 | 0.00 | 76 | 1021.2 |
| 20260906114820 | 62 | 358 | 0.0 | 0.0 | 0.00 | 0.00 | 0.00 | 75 | 1021.2 |
| 20260906114323 | 62 | 358 | 0.0 | 0.0 | 0.00 | 0.00 | 0.00 | 74 | 1021.3 |
| 20260906113824 | 62 | 358 | 0.0 | 0.0 | 0.00 | 0.00 | 0.00 | 74 | 1021.3 |
| 20260906113326 | 62 | 358 | 0.0 | 0.0 | 0.00 | 0.00 | 0.00 | 73 | 1021.3 |
| 20260906112827 | 62 | 358 | 0.0 | 0.0 | 0.00 | 0.00 | 0.00 | 73 | 1021.1 |
| 20260906112348 | 62 | 358 | 0.0 | 0.0 | 0.00 | 0.00 | 0.00 | 73 | 1021.1 |
| 20260906111847 | 62 | 358 | 0.0 | 0.0 | 0.00 | 0.00 | 0.00 | 72 | 1021.3 |
| 20260906111328 | 62 | 358 | 0.0 | 0.0 | 0.00 | 0.00 | 0.00 | 72 | 1021.2 |
| 20260906110830 | 62 | 358 | 0.0 | 0.0 | 0.00 | 0.00 | 0.00 | 72 | 1021.1 |
| 20260906110330 | 63 | 358 | 0.0 | 0.0 | 0.00 | 0.00 | 0.00 | 72 | 1021.2 |
| 20260906105830 | 63 | 358 | 0.0 | 0.0 | 0.00 | 0.00 | 0.00 | 72 | 1021.3 |
| 20260906105313 | 63 | 358 | 0.0 | 0.0 | 0.00 | 0.00 | 0.00 | 70 | 1021.0 |
| 20260906104814 | 63 | 252 | 0.0 | 0.0 | 0.00 | 0.00 | 0.00 | 70 | 1020.9 |
| 20260906104315 | 64 | 358 | 0.0 | 0.0 | 0.00 | 0.00 | 0.00 | 70 | 1020.8 |
| 20260906103817 | 64 | 358 | 0.0 | 0.0 | 0.00 | 0.00 | 0.00 | 70 | 1020.8 |
| 20260906103319 | 64 | 358 | 0.0 | 0.0 | 0.00 | 0.00 | 0.00 | 70 | 1020.8 |
| 20260906102821 | 64 | 358 | 0.0 | 0.0 | 0.00 | 0.00 | 0.00 | 69 | 1020.7 |
| 20260906102322 | 64 | 358 | 0.0 | 0.0 | 0.00 | 0.00 | 0.00 | 69 | 1020.7 |
| 20260906101824 | 64 | 358 | 0.0 | 0.0 | 0.00 | 0.00 | 0.00 | 69 | 1020.7 |
| 20260906101325 | 64 | 358 | 0.0 | 0.0 | 0.00 | 0.00 | 0.00 | 69 | 1020.7 |
| 20260906100827 | 64 | 358 | 0.0 | 0.0 | 0.00 | 0.00 | 0.00 | 69 | 1020.7 |
| 20260906100329 | 64 | 358 | 0.0 | 0.0 | 0.00 | 0.00 | 0.00 | 68 | 1020.8 |
| 20260906095831 | 64 | 358 | 0.0 | 0.0 | 0.00 | 0.00 | 0.00 | 67 | 1020.7 |
| 20260906095330 | 65 | 358 | 0.0 | 0.0 | 0.00 | 0.00 | 0.00 | 67 | 1020.7 |
| 20260906094832 | 65 | 358 | 0.0 | 0.0 | 0.00 | 0.00 | 0.00 | 66 | 1020.8 |
| 20260906094332 | 65 | 358 | 0.0 | 0.0 | 0.00 | 0.00 | 0.00 | 66 | 1020.8 |
| 20260906093813 | 65 | 358 | 0.0 | 0.0 | 0.00 | 0.00 | 0.00 | 65 | 1020.7 |
| 20260906093315 | 65 | 358 | 0.0 | 0.0 | 0.00 | 0.00 | 0.00 | 65 | 1020.7 |
| 20260906092836 | 65 | 358 | 0.0 | 0.0 | 0.00 | 0.00 | 0.00 | 65 | 1020.7 |
| 20260906092318 | 65 | 358 | 0.0 | 0.0 | 0.00 | 0.00 | 0.00 | 64 | 1020.7 |
| 20260906091818 | 66 | 358 | 0.0 | 0.0 | 0.00 | 0.00 | 0.00 | 64 | 1020.6 |
| 20260906091318 | 66 | 358 | 0.0 | 0.0 | 0.00 | 0.00 | 0.00 | 63 | 1020.7 |
| 20260906090818 | 66 | 358 | 0.0 | 0.0 | 0.00 | 0.00 | 0.00 | 62 | 1020.7 |
| 20260906090318 | 66 | 358 | 0.0 | 0.0 | 0.00 | 0.00 | 0.00 | 62 | 1020.6 |
| 20260906085820 | 67 | 358 | 0.0 | 0.0 | 0.00 | 0.00 | 0.00 | 61 | 1020.5 |
| 20260906085337 | 67 | 358 | 0.0 | 0.0 | 0.00 | 0.00 | 0.00 | 61 | 1020.4 |
| 20260906084837 | 67 | 252 | 0.0 | 0.0 | 0.00 | 0.00 | 0.00 | 60 | 1020.5 |
| 20260906084319 | 68 | 252 | 0.0 | 0.0 | 0.00 | 0.00 | 0.00 | 60 | 1020.5 |
| 20260906083840 | 68 | 252 | 0.0 | 0.0 | 0.00 | 0.00 | 0.00 | 59 | 1020.5 |
| 20260906083320 | 68 | 252 | 0.0 | 0.0 | 0.00 | 0.00 | 0.00 | 58 | 1020.6 |
| 20260906082822 | 68 | 252 | 0.0 | 0.0 | 0.00 | 0.00 | 0.00 | 58 | 1020.6 |
| 20260906082325 | 69 | 252 | 0.0 | 0.0 | 0.00 | 0.00 | 0.00 | 58 | 1020.6 |
| 20260906081826 | 69 | 252 | 0.0 | 0.0 | 0.00 | 0.00 | 0.00 | 57 | 1020.7 |
| 20260906081327 | 69 | 252 | 0.0 | 0.0 | 0.00 | 0.00 | 0.00 | 57 | 1020.8 |
| 20260906080849 | 69 | 252 | 0.0 | 0.0 | 0.00 | 0.00 | 0.00 | 57 | 1020.8 |
| 20260906080329 | 69 | 252 | 0.0 | 0.0 | 0.00 | 0.00 | 0.00 | 56 | 1020.8 |
| 20260906075831 | 70 | 252 | 0.0 | 0.0 | 0.00 | 0.00 | 0.00 | 55 | 1020.8 |
| 20260906075313 | 70 | 252 | 0.0 | 0.0 | 0.00 | 0.00 | 0.00 | 54 | 1020.7 |
| 20260906074815 | 70 | 252 | 0.0 | 0.0 | 0.00 | 0.00 | 0.00 | 52 | 1020.7 |
| 20260906074317 | 71 | 252 | 0.0 | 0.0 | 0.00 | 0.00 | 0.00 | 51 | 1020.6 |
| 20260906073819 | 71 | 252 | 0.0 | 0.0 | 0.00 | 0.00 | 0.00 | 50 | 1020.7 |
| 20260906073321 | 71 | 252 | 0.0 | 0.0 | 0.00 | 0.00 | 0.00 | 50 | 1020.6 |
| 20260906072843 | 72 | 252 | 0.0 | 1.0 | 0.00 | 0.00 | 0.00 | 50 | 1020.3 |
| 20260906072320 | 72 | 252 | 0.0 | 1.0 | 0.00 | 0.00 | 0.00 | 49 | 1020.2 |
| 20260906071822 | 72 | 252 | 0.0 | 1.0 | 0.00 | 0.00 | 0.00 | 48 | 1020.1 |
| 20260906071324 | 72 | 252 | 0.0 | 2.0 | 0.00 | 0.00 | 0.00 | 48 | 1020.0 |
| 20260906070828 | 73 | 252 | 0.0 | 3.0 | 0.00 | 0.00 | 0.00 | 47 | 1019.9 |
| 20260906070331 | 73 | 358 | 2.0 | 5.0 | 0.00 | 0.00 | 0.00 | 47 | 1019.9 |
| 20260906065814 | 73 | 358 | 2.0 | 5.0 | 0.00 | 0.00 | 0.00 | 45 | 1019.9 |
| 20260906065317 | 74 | 358 | 2.0 | 10.0 | 0.00 | 0.00 | 0.00 | 45 | 1019.8 |
| 20260906064819 | 74 | 252 | 4.0 | 10.0 | 0.00 | 0.00 | 0.00 | 45 | 1019.8 |
| 20260906064321 | 74 | 250 | 2.0 | 8.0 | 0.00 | 0.00 | 0.00 | 45 | 1019.8 |
| 20260906063823 | 73 | 249 | 4.0 | 8.0 | 0.00 | 0.00 | 0.00 | 46 | 1019.8 |
| 20260906063345 | 73 | 248 | 3.0 | 4.0 | 0.00 | 0.00 | 0.00 | 48 | 1019.8 |
| 20260906062828 | 73 | 248 | 0.0 | 5.0 | 0.00 | 0.00 | 0.00 | 48 | 1019.8 |
| 20260906062348 | 74 | 248 | 2.0 | 8.0 | 0.00 | 0.00 | 0.00 | 50 | 1020.0 |
| 20260906061828 | 74 | 247 | 4.0 | 8.0 | 0.00 | 0.00 | 0.00 | 48 | 1020.1 |
| 20260906061353 | 74 | 246 | 1.0 | 13.0 | 0.00 | 0.00 | 0.00 | 51 | 1020.2 |
| 20260906060832 | 75 | 358 | 2.0 | 14.0 | 0.00 | 0.00 | 0.00 | 47 | 1020.3 |
| 20260906060313 | 76 | 243 | 6.0 | 14.0 | 0.00 | 0.00 | 0.00 | 40 | 1020.8 |
| 20260906055816 | 76 | 329 | 5.0 | 9.0 | 0.00 | 0.00 | 0.00 | 39 | 1021.0 |
| 20260906055320 | 75 | 353 | 4.0 | 6.0 | 0.00 | 0.00 | 0.00 | 40 | 1020.9 |
| 20260906054823 | 75 | 353 | 3.0 | 8.0 | 0.00 | 0.00 | 0.00 | 40 | 1020.8 |
| 20260906054325 | 74 | 353 | 2.0 | 5.0 | 0.00 | 0.00 | 0.00 | 41 | 1020.6 |
| 20260906053849 | 74 | 353 | 0.0 | 1.0 | 0.00 | 0.00 | 0.00 | 42 | 1020.6 |
| 20260906053332 | 74 | 353 | 0.0 | 0.0 | 0.00 | 0.00 | 0.00 | 42 | 1020.4 |
| 20260906052816 | 74 | 353 | 0.0 | 1.0 | 0.00 | 0.00 | 0.00 | 42 | 1020.5 |
| 20260906052318 | 74 | 353 | 0.0 | 1.0 | 0.00 | 0.00 | 0.00 | 42 | 1020.5 |
| 20260906051842 | 75 | 353 | 0.0 | 4.0 | 0.00 | 0.00 | 0.00 | 41 | 1020.6 |
| 20260906051326 | 74 | 353 | 0.0 | 4.0 | 0.00 | 0.00 | 0.00 | 41 | 1020.6 |
| 20260906050829 | 74 | 353 | 1.0 | 3.0 | 0.00 | 0.00 | 0.00 | 41 | 1020.6 |
| 20260906050313 | 74 | 353 | 0.0 | 1.0 | 0.00 | 0.00 | 0.00 | 41 | 1020.6 |
| 20260906045836 | 75 | 353 | 0.0 | 1.0 | 0.00 | 0.00 | 0.00 | 40 | 1020.7 |
| 20260906045317 | 75 | 353 | 0.0 | 1.0 | 0.00 | 0.00 | 0.00 | 40 | 1020.8 |
| 20260906044820 | 75 | 353 | 0.0 | 0.0 | 0.00 | 0.00 | 0.00 | 40 | 1020.8 |
| 20260906044324 | 76 | 348 | 0.0 | 0.0 | 0.00 | 0.00 | 0.00 | 39 | 1020.8 |
| 20260906043827 | 76 | 353 | 0.0 | 0.0 | 0.00 | 0.00 | 0.00 | 39 | 1020.8 |
| 20260906043329 | 77 | 353 | 0.0 | 0.0 | 0.00 | 0.00 | 0.00 | 38 | 1020.8 |
| 20260906042831 | 77 | 353 | 0.0 | 0.0 | 0.00 | 0.00 | 0.00 | 36 | 1021.1 |
| 20260906042314 | 77 | 353 | 0.0 | 0.0 | 0.00 | 0.00 | 0.00 | 37 | 1021.0 |
| 20260906041816 | 77 | 353 | 0.0 | 2.0 | 0.00 | 0.00 | 0.00 | 36 | 1021.0 |
| 20260906041319 | 77 | 353 | 0.0 | 5.0 | 0.00 | 0.00 | 0.00 | 35 | 1020.9 |
| 20260906040822 | 77 | 353 | 0.0 | 8.0 | 0.00 | 0.00 | 0.00 | 35 | 1020.7 |
| 20260906040346 | 77 | 353 | 3.0 | 8.0 | 0.00 | 0.00 | 0.00 | 35 | 1020.6 |
| 20260906035827 | 77 | 353 | 3.0 | 8.0 | 0.00 | 0.00 | 0.00 | 35 | 1020.5 |
| 20260906035330 | 77 | 353 | 4.0 | 5.0 | 0.00 | 0.00 | 0.00 | 35 | 1020.4 |
| 20260906034812 | 77 | 353 | 0.0 | 2.0 | 0.00 | 0.00 | 0.00 | 35 | 1020.0 |
| 20260906034314 | 77 | 353 | 0.0 | 2.0 | 0.00 | 0.00 | 0.00 | 35 | 1019.9 |
| 20260906033837 | 78 | 353 | 0.0 | 3.0 | 0.00 | 0.00 | 0.00 | 35 | 1019.9 |
| 20260906033318 | 78 | 353 | 1.0 | 3.0 | 0.00 | 0.00 | 0.00 | 34 | 1019.9 |
| 20260906032842 | 78 | 353 | 1.0 | 3.0 | 0.00 | 0.00 | 0.00 | 34 | 1020.0 |
| 20260906032323 | 78 | 349 | 0.0 | 3.0 | 0.00 | 0.00 | 0.00 | 34 | 1019.9 |
| 20260906031826 | 79 | 349 | 0.0 | 2.0 | 0.00 | 0.00 | 0.00 | 33 | 1019.8 |
| 20260906031349 | 79 | 353 | 0.0 | 1.0 | 0.00 | 0.00 | 0.00 | 33 | 1019.7 |
| 20260906030812 | 80 | 353 | 0.0 | 1.0 | 0.00 | 0.00 | 0.00 | 32 | 1019.5 |
| 20260906030313 | 80 | 353 | 0.0 | 3.0 | 0.00 | 0.00 | 0.00 | 32 | 1019.5 |
| 20260906025816 | 80 | 353 | 1.0 | 6.0 | 0.00 | 0.00 | 0.00 | 31 | 1019.5 |
| 20260906025318 | 80 | 353 | 2.0 | 6.0 | 0.00 | 0.00 | 0.00 | 31 | 1019.4 |
| 20260906024822 | 81 | 349 | 1.0 | 3.0 | 0.00 | 0.00 | 0.00 | 31 | 1019.4 |
| 20260906024343 | 81 | 349 | 1.0 | 2.0 | 0.00 | 0.00 | 0.00 | 31 | 1019.3 |
| 20260906023825 | 81 | 349 | 0.0 | 5.0 | 0.00 | 0.00 | 0.00 | 31 | 1019.3 |
| 20260906023313 | 81 | 349 | 2.0 | 8.0 | 0.00 | 0.00 | 0.00 | 30 | 1019.3 |
| 20260906022817 | 82 | 349 | 2.0 | 8.0 | 0.00 | 0.00 | 0.00 | 30 | 1019.3 |
| 20260906022335 | 82 | 349 | 1.0 | 4.0 | 0.00 | 0.00 | 0.00 | 30 | 1019.3 |
| 20260906021816 | 82 | 349 | 0.0 | 1.0 | 0.00 | 0.00 | 0.00 | 29 | 1019.2 |
| 20260906021340 | 83 | 349 | 0.0 | 1.0 | 0.00 | 0.00 | 0.00 | 29 | 1019.2 |
| 20260906020823 | 83 | 349 | 0.0 | 1.0 | 0.00 | 0.00 | 0.00 | 29 | 1019.1 |
| 20260906020325 | 84 | 349 | 0.0 | 2.0 | 0.00 | 0.00 | 0.00 | 28 | 1019.0 |
| 20260906015847 | 84 | 349 | 0.0 | 5.0 | 0.00 | 0.00 | 0.00 | 27 | 1018.9 |
| 20260906015329 | 84 | 349 | 1.0 | 8.0 | 0.00 | 0.00 | 0.00 | 27 | 1018.9 |
| 20260906014813 | 84 | 349 | 4.0 | 10.0 | 0.00 | 0.00 | 0.00 | 26 | 1018.8 |
| 20260906014316 | 84 | 20 | 2.0 | 4.0 | 0.00 | 0.00 | 0.00 | 26 | 1018.6 |
| 20260906013819 | 84 | 21 | 0.0 | 0.0 | 0.00 | 0.00 | 0.00 | 26 | 1018.5 |
| 20260906013323 | 85 | 21 | 0.0 | 1.0 | 0.00 | 0.00 | 0.00 | 26 | 1018.2 |
| 20260906012825 | 85 | 21 | 0.0 | 1.0 | 0.00 | 0.00 | 0.00 | 26 | 1018.3 |
| 20260906012328 | 86 | 21 | 0.0 | 1.0 | 0.00 | 0.00 | 0.00 | 25 | 1018.2 |
| 20260906011831 | 86 | 21 | 0.0 | 1.0 | 0.00 | 0.00 | 0.00 | 25 | 1018.2 |
| 20260906011313 | 87 | 21 | 0.0 | 0.0 | 0.00 | 0.00 | 0.00 | 24 | 1018.2 |
| 20260906010816 | 88 | 21 | 0.0 | 2.0 | 0.00 | 0.00 | 0.00 | 24 | 1018.2 |
| 20260906010318 | 88 | 21 | 0.0 | 1.0 | 0.00 | 0.00 | 0.00 | 23 | 1018.2 |
| 20260906005842 | 89 | 21 | 0.0 | 2.0 | 0.00 | 0.00 | 0.00 | 23 | 1018.2 |
| 20260906005329 | 89 | 21 | 0.0 | 2.0 | 0.00 | 0.00 | 0.00 | 22 | 1018.2 |
| 20260906004831 | 89 | 21 | 0.0 | 2.0 | 0.00 | 0.00 | 0.00 | 22 | 1018.2 |
| 20260906004312 | 90 | 21 | 0.0 | 4.0 | 0.00 | 0.00 | 0.00 | 22 | 1018.2 |
| 20260906003815 | 90 | 21 | 2.0 | 4.0 | 0.00 | 0.00 | 0.00 | 21 | 1018.2 |
| 20260906003316 | 91 | 21 | 2.0 | 4.0 | 0.00 | 0.00 | 0.00 | 21 | 1018.2 |
| 20260906002818 | 91 | 21 | 2.0 | 5.0 | 0.00 | 0.00 | 0.00 | 20 | 1018.1 |
| 20260906002320 | 91 | 21 | 0.0 | 3.0 | 0.00 | 0.00 | 0.00 | 21 | 1018.0 |
| 20260906001821 | 91 | 21 | 1.0 | 5.0 | 0.00 | 0.00 | 0.00 | 21 | 1018.0 |
| 20260906001321 | 91 | 21 | 2.0 | 5.0 | 0.00 | 0.00 | 0.00 | 20 | 1017.9 |
| 20260906000822 | 92 | 22 | 2.0 | 8.0 | 0.00 | 0.00 | 0.00 | 20 | 1018.0 |
| 20260906000323 | 92 | 21 | 2.0 | 8.0 | 0.00 | 0.00 | 0.00 | 20 | 1017.9 |
| 20260905235825 | 93 | 12 | 3.0 | 5.0 | 0.00 | 0.00 | 0.00 | 20 | 1017.9 |
| 20260905235327 | 92 | 13 | 1.0 | 3.0 | 0.00 | 0.00 | 0.00 | 20 | 1017.9 |
| 20260905234829 | 92 | 13 | 0.0 | 5.0 | 0.00 | 0.00 | 0.00 | 20 | 1017.9 |
| 20260905234330 | 92 | 13 | 2.0 | 5.0 | 0.00 | 0.00 | 0.00 | 19 | 1017.9 |
| 20260905233831 | 92 | 11 | 1.0 | 4.0 | 0.00 | 0.00 | 0.00 | 21 | 1017.9 |
| 20260905233332 | 92 | 11 | 2.0 | 6.0 | 0.00 | 0.00 | 0.00 | 20 | 1017.9 |
| 20260905232812 | 92 | 11 | 2.0 | 10.0 | 0.00 | 0.00 | 0.00 | 20 | 1017.9 |
| 20260905232335 | 92 | 12 | 5.0 | 10.0 | 0.00 | 0.00 | 0.00 | 20 | 1017.9 |
| 20260905231833 | 92 | 7 | 4.0 | 9.0 | 0.00 | 0.00 | 0.00 | 20 | 1017.8 |
| 20260905231313 | 92 | 7 | 5.0 | 9.0 | 0.00 | 0.00 | 0.00 | 20 | 1017.8 |
| 20260905230813 | 92 | 9 | 3.0 | 10.0 | 0.00 | 0.00 | 0.00 | 20 | 1017.8 |
| 20260905230316 | 93 | 12 | 5.0 | 10.0 | 0.00 | 0.00 | 0.00 | 20 | 1017.8 |
| 20260905225818 | 93 | 344 | 2.0 | 8.0 | 0.00 | 0.00 | 0.00 | 20 | 1017.8 |
| 20260905225319 | 93 | 345 | 3.0 | 5.0 | 0.00 | 0.00 | 0.00 | 20 | 1017.7 |
| 20260905224842 | 92 | 345 | 1.0 | 6.0 | 0.00 | 0.00 | 0.00 | 21 | 1017.8 |
| 20260905224343 | 92 | 346 | 2.0 | 6.0 | 0.00 | 0.00 | 0.00 | 21 | 1017.7 |
| 20260905223823 | 92 | 345 | 1.0 | 11.0 | 0.00 | 0.00 | 0.00 | 21 | 1017.7 |
| 20260905223344 | 93 | 345 | 7.0 | 11.0 | 0.00 | 0.00 | 0.00 | 20 | 1017.9 |
| 20260905222825 | 93 | 353 | 3.0 | 9.0 | 0.00 | 0.00 | 0.00 | 20 | 1017.8 |
| 20260905222326 | 93 | 358 | 3.0 | 8.0 | 0.00 | 0.00 | 0.00 | 20 | 1017.9 |
| 20260905221827 | 92 | 3 | 3.0 | 6.0 | 0.00 | 0.00 | 0.00 | 20 | 1017.9 |
| 20260905221329 | 92 | 9 | 3.0 | 9.0 | 0.00 | 0.00 | 0.00 | 20 | 1018.0 |
| 20260905220849 | 93 | 9 | 1.0 | 9.0 | 0.00 | 0.00 | 0.00 | 20 | 1018.0 |
| 20260905220331 | 93 | 10 | 5.0 | 10.0 | 0.00 | 0.00 | 0.00 | 20 | 1018.0 |
| 20260905215812 | 92 | 13 | 4.0 | 10.0 | 0.00 | 0.00 | 0.00 | 20 | 1018.1 |
| 20260905215314 | 92 | 25 | 1.0 | 12.0 | 0.00 | 0.00 | 0.00 | 20 | 1018.2 |
| 20260905214816 | 93 | 24 | 6.0 | 12.0 | 0.00 | 0.00 | 0.00 | 19 | 1018.2 |
| 20260905214338 | 93 | 8 | 6.0 | 9.0 | 0.00 | 0.00 | 0.00 | 19 | 1018.3 |
| 20260905213819 | 93 | 7 | 4.0 | 9.0 | 0.00 | 0.00 | 0.00 | 21 | 1018.2 |